GEFSMA_500_meanwind_006.txt.gz
Wind_Speed
13 12 10 8 9 11 12 12 11 10 10 11 13 14 16 16 14 13 13 12 13 14 14 15 16 16 17 19 18 17 15 14 13 12 11 10 8 6 7 7 6 5 3
13 13 12 10 9 11 12 12 10 7 6 7 9 12 15 16 15 14 13 12 12 12 12 13 16 17 19 21 20 19 17 15 14 13 11 9 8 7 6 6 5 5 4
14 14 14 12 11 12 12 11 11 8 6 6 6 8 12 14 14 14 14 14 14 13 13 13 16 19 20 20 20 19 18 17 15 12 10 9 8 7 6 6 5 5 4
15 15 15 14 12 12 13 12 12 11 7 4 4 5 8 10 12 12 13 14 15 16 15 14 15 16 16 16 16 16 16 14 12 11 9 8 8 6 6 5 5 6 6
14 16 16 15 13 14 14 14 13 13 9 6 4 3 4 7 9 11 12 14 16 16 15 14 14 13 13 12 12 12 12 12 11 11 10 9 8 6 5 5 7 8 8
14 16 17 16 15 16 17 16 15 14 12 9 5 1 2 4 7 9 11 13 15 16 15 15 15 15 14 13 13 12 11 11 12 12 12 10 8 6 6 6 7 8 9
15 18 19 18 18 19 19 17 15 14 13 11 8 5 3 4 5 6 8 11 14 15 16 17 17 17 17 17 16 16 15 13 14 14 13 10 9 8 8 9 9 8 9
20 21 23 22 22 21 20 20 18 17 16 14 11 9 8 7 6 5 6 7 11 14 15 16 17 18 19 19 19 19 19 18 18 17 15 13 12 11 11 12 11 10 10
25 24 25 25 24 24 22 22 22 21 20 17 13 12 12 11 9 8 8 8 8 9 11 13 15 16 18 19 19 19 19 20 21 21 18 17 15 13 12 13 14 14 13
26 27 27 28 27 28 27 25 24 23 23 20 17 15 15 14 13 13 12 12 11 11 11 12 13 14 16 17 17 18 19 19 21 22 20 18 16 16 15 15 16 16 16
25 26 28 31 30 32 32 30 28 25 25 23 19 18 18 18 17 16 16 16 16 15 14 13 13 14 15 15 15 16 18 19 20 21 21 19 18 18 17 17 17 17 17
22 24 27 31 33 33 33 32 30 28 27 24 23 22 21 21 19 17 16 17 18 17 16 15 14 15 15 15 15 15 17 18 19 21 21 21 20 19 19 18 18 18 19
20 22 28 31 32 32 32 31 31 30 29 28 28 26 24 22 21 19 17 16 15 16 17 17 17 17 17 17 16 15 16 17 18 20 21 22 22 22 21 21 20 20 22
17 19 23 29 32 32 31 31 31 32 32 31 31 30 27 25 23 21 20 18 15 16 18 18 18 18 17 17 17 16 16 17 18 19 21 22 23 23 23 22 22 23 25
14 14 15 18 25 31 33 33 33 32 32 31 30 31 30 28 27 25 23 22 21 19 19 19 19 19 18 17 17 17 17 18 19 20 22 23 24 24 23 23 24 25 25
15 16 15 16 19 26 30 33 33 33 33 32 30 29 30 31 30 28 27 26 25 23 21 21 20 20 19 18 17 18 19 20 20 21 22 24 24 23 23 24 25 25 25
15 16 18 18 18 20 24 29 32 32 32 32 32 31 32 33 32 31 30 29 28 26 24 23 22 22 21 19 18 20 21 21 21 20 21 22 22 23 24 24 24 23 23
16 16 17 19 20 21 22 25 30 31 32 33 35 35 36 36 35 33 33 33 31 28 26 25 26 25 24 22 20 21 22 23 22 20 21 22 22 23 23 23 23 21 21
16 15 17 18 19 20 22 25 29 31 32 33 34 34 34 33 32 33 34 35 34 31 29 28 28 27 26 23 22 22 23 24 22 22 22 23 23 22 21 21 21 19 18
17 17 18 19 19 19 19 22 26 29 31 33 33 33 33 32 31 31 32 33 33 32 30 28 27 25 23 21 20 21 21 21 21 21 22 22 22 22 20 19 18 17 17
20 19 19 20 22 23 23 22 22 24 27 31 33 33 33 32 31 30 29 30 30 31 30 28 26 24 22 19 20 21 21 21 21 21 22 22 22 21 19 18 17 16 16
22 22 21 22 22 22 22 21 22 24 26 27 31 33 33 31 30 31 30 29 30 30 29 27 27 26 23 20 19 21 22 23 24 24 23 22 22 21 20 19 19 17 16
25 24 23 23 23 22 21 21 21 24 26 27 28 30 32 32 30 30 32 32 31 31 29 27 27 27 25 22 20 21 21 22 24 24 24 23 23 22 21 20 20 19 18
25 25 25 24 24 24 24 23 23 24 26 27 27 28 30 32 32 31 32 32 32 32 30 29 28 27 26 25 23 22 22 22 24 24 25 25 23 22 21 21 20 20 19
25 24 25 25 25 26 26 27 26 26 28 29 28 27 26 30 33 33 33 33 33 33 32 30 28 28 27 26 25 24 24 23 24 25 26 26 24 21 21 21 20 19 18
27 26 25 25 25 25 26 28 28 28 28 29 29 28 28 28 31 34 35 34 34 33 33 32 31 30 28 26 25 25 25 24 25 26 27 27 24 22 22 21 21 19 18

GEFSMA_500_meanwind_012.txt.gz
Wind_Speed
11 12 13 13 12 11 11 11 11 10 11 13 16 19 21 23 22 20 18 17 17 16 16 18 20 19 17 17 17 17 17 16 14 12 11 11 10 10 9 8 8 9 9
10 12 13 13 12 12 11 11 11 9 10 11 13 15 18 21 22 20 18 17 15 15 16 17 19 20 20 19 20 19 19 18 16 14 13 12 11 10 9 8 8 9 10
10 12 14 14 13 12 11 11 11 10 10 10 11 13 16 19 21 21 20 17 15 14 15 16 17 19 20 20 21 20 20 19 17 16 15 14 13 11 10 9 9 9 10
10 11 14 14 14 13 12 12 11 10 11 9 9 10 13 16 19 19 19 18 16 15 16 16 17 18 19 19 20 21 21 20 19 18 17 15 13 12 11 11 10 10 10
11 10 12 14 14 14 13 12 12 11 12 11 10 9 9 13 16 17 17 18 18 18 18 17 17 17 18 18 18 19 20 20 20 19 16 14 12 11 9 9 10 10 9
13 11 12 13 14 14 14 13 13 13 13 13 11 8 6 9 12 14 15 16 18 20 20 19 18 17 17 17 16 16 16 16 16 15 14 12 11 9 8 7 8 8 8
18 16 14 13 14 15 15 15 15 15 15 14 13 9 6 6 8 10 12 15 17 19 20 19 18 18 17 16 15 14 14 14 13 12 12 12 11 9 8 8 8 7 7
21 20 17 15 14 15 16 17 17 16 16 15 14 12 8 6 6 7 10 13 15 17 18 19 19 18 17 16 16 15 15 14 13 13 12 13 13 12 11 10 10 9 8
24 21 20 18 16 17 18 19 20 19 18 18 16 14 12 10 8 7 8 10 12 13 15 16 17 17 17 17 17 16 16 16 16 15 15 16 16 16 15 14 13 12 11
26 24 20 20 21 21 21 22 23 23 22 20 19 17 15 13 11 10 9 9 10 11 13 14 15 16 16 16 16 15 16 17 18 19 19 20 20 20 19 17 16 14 13
28 25 23 23 23 24 25 25 26 26 25 24 23 21 18 16 15 13 12 11 11 11 12 12 13 14 14 15 15 15 15 17 18 19 20 22 23 23 22 20 17 16 15
27 26 25 25 25 26 27 28 28 29 28 28 26 24 22 20 18 16 15 15 15 14 14 14 13 13 14 14 14 14 14 15 16 17 19 21 22 24 23 21 19 18 17
23 24 26 26 26 27 28 29 30 31 31 30 30 28 26 24 21 19 18 17 17 17 17 17 17 17 16 15 14 15 15 16 16 17 18 20 21 23 24 23 21 20 19
19 20 23 24 24 25 26 28 30 32 33 34 34 31 29 27 25 23 20 19 19 19 19 19 19 20 19 18 17 17 18 18 18 17 17 18 20 21 22 22 22 21 20
16 17 18 19 21 22 24 27 32 35 36 36 36 35 32 30 28 26 24 23 21 20 19 19 20 20 21 21 20 19 19 20 20 19 19 18 19 19 20 21 21 21 21
15 16 17 19 20 21 22 24 28 33 36 38 38 37 35 34 32 30 28 27 25 24 23 22 21 21 21 22 22 20 20 20 21 20 20 19 19 20 20 21 21 21 22
14 15 16 17 19 20 20 22 24 29 35 38 38 36 35 35 34 32 31 30 30 28 27 25 25 23 23 23 23 22 21 22 22 22 21 20 20 20 20 20 20 21 21
16 16 16 17 18 19 20 21 22 25 29 33 36 36 36 35 34 33 32 33 33 32 30 29 28 27 26 26 26 25 24 23 23 23 22 21 20 20 20 20 19 20 21
18 18 17 18 19 19 19 20 21 22 24 28 32 35 35 35 34 33 33 33 33 33 33 32 32 30 29 29 29 28 26 25 25 24 24 23 22 22 21 20 20 20 21
21 20 20 20 20 21 21 20 20 21 23 26 29 31 33 35 35 35 34 35 35 35 34 34 35 34 33 32 31 30 28 26 26 26 25 24 23 22 21 20 20 20 21
22 22 22 21 22 22 22 22 22 22 23 24 26 28 31 33 35 36 36 36 36 36 36 35 36 36 34 34 33 31 28 26 26 26 25 24 23 21 20 20 20 20 20
23 24 24 23 24 24 25 25 24 24 25 25 25 26 28 30 33 35 37 37 37 36 35 35 34 33 34 34 34 31 28 26 26 26 25 24 23 22 22 22 22 22 21
24 24 25 25 25 25 26 26 27 27 26 26 26 27 27 28 29 32 35 36 37 36 35 35 33 32 33 33 33 31 28 27 27 27 26 24 24 24 24 23 23 22 22
24 25 25 26 26 26 27 27 28 28 27 27 26 26 27 28 28 28 31 34 35 36 36 35 34 34 33 32 31 30 29 30 29 28 26 25 25 24 24 24 23 23 22
25 25 25 26 26 27 28 28 28 28 28 27 26 26 27 28 28 27 27 30 32 34 34 35 35 35 34 33 32 31 31 32 31 29 26 26 25 25 25 25 24 23 22
26 25 25 26 27 27 28 28 29 29 29 28 27 26 26 26 26 27 27 27 28 32 33 34 36 37 36 34 33 33 33 33 33 30 27 26 26 26 25 25 24 23 22

GEFSMA_500_meanwind_018.txt.gz
Wind_Speed
18 17 14 12 11 10 10 10 11 13 14 15 15 16 18 19 20 21 21 20 19 17 16 15 14 15 16 17 17 16 15 14 14 14 13 10 8 7 6 6 7 7 7
18 18 16 14 12 12 11 11 12 12 13 14 15 16 17 18 19 20 21 21 20 19 17 16 15 16 18 19 19 18 16 15 15 15 14 12 10 8 7 7 8 8 8
17 18 17 15 13 13 13 13 12 13 13 14 14 14 15 15 17 19 20 21 20 19 17 16 15 16 19 21 21 19 18 17 17 16 15 13 11 10 9 9 9 9 8
17 18 18 17 15 14 14 14 14 14 13 13 13 12 12 13 15 17 18 19 19 19 18 16 15 16 18 20 21 21 20 19 19 18 17 15 13 13 11 10 10 10 9
19 19 20 19 17 15 16 17 16 15 14 13 13 12 11 11 13 15 16 18 19 19 18 16 15 14 15 18 20 21 21 21 20 19 18 16 16 15 13 12 11 10 9
20 20 21 20 18 16 17 18 18 17 16 14 14 12 11 11 11 12 14 16 18 19 18 17 15 14 14 15 18 19 20 20 20 20 19 18 17 15 13 12 10 9 8
22 21 22 22 20 19 19 20 19 19 17 16 15 14 12 11 10 10 11 13 15 16 17 17 16 15 15 15 16 17 18 18 18 19 18 17 16 14 13 11 9 8 7
24 24 24 24 23 21 21 21 21 21 20 19 17 15 13 12 9 8 9 10 13 14 15 15 16 15 15 15 16 16 15 15 15 15 15 15 14 13 13 11 10 8 7
26 25 24 25 25 24 22 20 20 23 22 21 19 18 15 13 10 8 7 8 10 11 12 13 14 15 15 15 16 15 15 14 14 13 13 13 12 13 13 12 10 9 8
28 27 26 26 26 25 22 21 18 19 21 21 20 19 19 17 14 10 8 7 7 9 10 11 13 16 17 17 17 16 16 15 15 15 15 14 13 13 14 14 13 12 11
28 26 26 26 27 25 23 20 19 19 20 21 21 20 20 20 18 14 11 9 8 8 9 10 12 14 16 17 17 17 17 16 16 16 16 16 16 15 16 17 18 17 15
26 25 25 26 26 25 23 22 21 20 20 21 23 23 22 22 22 18 15 13 11 10 9 10 11 12 14 15 16 17 17 17 16 16 17 17 17 17 18 19 20 20 19
24 24 23 24 24 23 23 23 22 22 21 23 23 24 24 24 24 22 20 17 15 13 12 12 12 12 13 14 14 15 15 16 15 15 15 16 16 17 18 19 20 21 21
21 21 20 19 20 21 21 22 23 22 24 25 25 25 26 27 26 25 23 21 18 17 16 15 15 15 14 15 15 15 15 15 15 15 15 15 16 17 18 19 19 20 21
18 17 16 16 16 17 18 19 20 21 22 24 26 26 27 29 29 28 27 25 22 20 18 17 17 17 17 17 17 17 17 16 16 16 17 17 17 17 17 17 18 19 20
17 16 16 15 15 16 17 19 20 21 22 23 24 26 27 29 30 31 30 29 27 24 22 20 18 18 18 18 18 18 18 18 17 17 18 18 18 18 18 18 18 19 20
18 17 17 16 16 17 17 19 19 20 22 23 24 25 27 29 31 32 33 32 30 28 25 24 21 20 20 20 19 19 19 19 18 18 18 19 19 19 19 19 20 20 21
19 19 19 18 18 18 18 19 19 19 20 21 23 25 25 29 31 33 34 34 32 31 28 26 24 23 22 22 22 21 20 20 20 19 19 20 20 20 20 20 21 21 22
19 20 21 21 20 20 20 20 20 20 20 20 21 23 23 25 29 33 35 34 32 32 30 29 27 26 25 25 25 25 23 22 22 21 21 21 21 22 22 22 22 23 23
20 20 21 22 22 23 23 23 23 23 22 22 21 21 22 24 26 30 33 34 33 33 31 29 28 27 27 26 27 28 27 25 24 25 24 24 24 24 24 24 25 25 25
21 21 21 22 23 23 24 24 24 24 23 23 22 20 20 22 23 24 28 31 33 32 32 30 28 28 27 28 28 29 29 28 27 27 28 27 27 27 27 27 26 26 26
23 23 23 22 23 23 24 25 25 25 24 23 22 21 20 20 21 22 23 26 29 30 31 31 30 29 29 29 30 30 30 29 29 30 30 30 29 29 28 27 26 26 26
25 25 25 24 24 24 25 26 26 26 26 25 25 23 22 21 21 21 21 22 25 27 30 32 31 30 30 30 30 30 29 29 30 31 31 30 30 29 29 28 27 27 27
25 26 26 26 25 25 26 26 27 27 27 26 26 25 24 23 22 22 22 22 23 25 27 29 31 32 31 30 29 29 29 29 29 29 32 30 29 29 29 29 28 28 27
25 26 26 26 26 26 26 26 26 27 27 27 27 26 25 25 24 24 23 23 23 23 24 26 28 30 32 33 32 32 32 32 31 30 32 31 30 30 29 30 29 28 28
23 23 24 25 25 26 26 26 26 26 27 27 27 27 27 26 25 24 24 24 24 24 24 25 26 28 30 31 33 33 33 33 33 32 34 33 31 32 31 31 32 30 29

GEFSMA_500_meanwind_024.txt.gz
Wind_Speed
10 11 13 13 11 10 8 8 9 10 11 12 14 16 18 19 21 21 22 21 21 19 18 17 16 15 14 14 14 14 13 13 14 16 16 14 12 9 7 6 6 6 6
10 11 12 13 12 11 9 9 10 11 12 13 14 15 17 19 20 21 22 23 22 22 20 19 18 17 16 16 16 16 15 15 15 16 16 15 13 10 8 7 7 7 7
9 11 12 13 13 12 11 11 12 12 13 14 15 15 17 17 19 20 22 22 23 22 21 20 19 18 18 17 18 18 17 17 16 16 16 16 14 12 9 8 7 7 7
9 10 11 12 13 13 13 12 13 14 14 15 15 16 16 16 17 19 20 22 22 23 22 21 20 19 18 18 19 20 19 19 18 17 17 17 16 14 12 10 9 8 8
11 11 12 13 14 14 15 14 13 15 16 17 17 16 16 16 16 17 18 20 21 22 22 21 20 19 18 18 19 21 22 21 20 19 18 18 18 17 14 12 11 10 9
14 13 13 14 14 15 16 16 15 15 17 18 18 17 16 16 16 16 16 18 19 20 20 20 19 18 17 17 18 20 23 22 21 21 20 20 19 18 16 15 13 12 10
15 16 16 16 16 17 18 18 17 17 17 19 20 19 18 17 16 16 15 15 17 19 20 20 20 19 18 17 17 19 21 23 23 22 22 21 20 20 18 17 15 13 12
17 18 18 19 19 20 21 21 20 19 18 19 20 21 20 18 17 16 14 14 15 17 20 21 21 21 20 19 18 18 20 22 22 22 22 22 21 20 19 18 16 14 13
19 20 21 21 22 23 23 23 22 20 19 19 20 21 21 20 18 16 14 13 13 15 18 21 22 22 21 21 20 19 19 20 21 21 21 21 20 19 19 18 17 16 15
22 22 23 24 24 24 24 25 24 22 20 20 21 22 23 21 19 17 15 13 13 14 16 20 21 22 22 21 20 19 19 19 20 19 19 19 18 18 18 18 18 18 16
24 24 24 24 24 24 25 26 26 25 23 21 21 22 23 24 23 20 18 15 13 13 14 17 19 20 21 21 20 19 18 18 19 19 18 18 18 18 18 18 19 19 18
25 25 25 24 24 24 25 26 27 27 24 22 21 22 23 24 26 24 21 18 16 14 14 15 16 17 18 19 20 19 19 18 19 19 19 19 19 19 18 18 19 20 20
25 25 24 23 23 23 24 25 25 26 24 23 22 22 21 22 26 26 24 21 19 17 16 15 15 15 15 17 17 18 19 18 18 18 18 18 18 18 19 18 19 20 21
23 24 23 22 22 22 22 22 22 23 24 23 23 23 22 22 24 26 26 25 23 21 19 17 16 15 14 15 16 16 17 18 18 18 17 17 17 17 17 17 18 19 20
23 22 22 21 20 19 19 18 18 19 21 22 22 22 23 23 22 25 27 27 26 24 22 21 19 18 16 16 16 16 17 18 18 18 17 17 17 16 16 16 17 18 19
21 20 20 20 19 18 17 16 16 16 17 19 20 20 21 22 23 23 26 29 29 29 27 25 23 21 20 19 19 18 18 19 19 19 19 18 18 18 18 18 18 18 19
20 19 19 19 19 19 17 17 16 17 17 18 19 20 21 22 23 23 25 28 31 32 31 29 27 25 24 22 21 20 20 21 21 21 20 20 20 20 19 19 19 19 19
20 20 19 19 19 20 19 18 18 17 17 17 18 19 20 21 23 23 24 27 31 33 34 32 31 30 28 26 24 23 22 22 22 22 22 22 22 21 21 20 20 20 20
20 20 20 20 19 20 21 21 20 19 19 19 18 18 19 20 21 23 24 26 30 32 34 34 34 34 32 30 28 26 25 24 24 24 24 24 23 23 23 22 21 21 22
20 20 20 20 19 19 20 22 22 22 21 21 20 20 19 19 19 21 23 24 27 30 33 34 36 36 35 34 32 31 29 28 26 25 26 26 26 25 24 24 24 24 24
19 20 20 20 19 19 20 21 22 23 23 23 22 21 21 20 20 20 21 23 24 27 29 34 36 37 37 36 35 34 33 32 30 29 30 29 29 28 27 27 27 27 26
20 20 20 20 20 20 21 21 22 23 23 23 23 22 22 21 20 20 20 21 23 25 27 31 34 36 37 37 36 35 34 33 32 33 32 31 31 31 31 30 30 30 30
22 21 21 21 21 21 21 21 22 22 23 23 23 23 22 21 20 19 19 20 21 22 24 25 27 30 34 36 37 36 35 33 34 35 34 33 33 34 34 33 32 32 32
23 22 21 20 20 21 21 21 21 22 22 22 22 23 23 23 22 21 21 20 20 21 22 23 25 27 30 32 34 35 35 34 34 34 34 34 36 36 35 34 33 33 33
22 21 20 19 20 20 21 21 22 22 23 23 23 23 23 24 23 23 22 22 22 22 21 22 23 25 26 28 31 33 34 34 34 34 35 34 35 36 35 34 34 33 34
20 20 19 19 19 19 20 20 21 22 23 23 24 24 24 24 24 24 23 23 23 23 23 23 23 24 25 27 28 30 31 32 33 34 35 34 35 36 35 35 35 35 35